GW3215 Weather Reports


time (UTC)temp
C
wind
direction
speed
KPH
gust
KPH
rain 1hr
cm
rain 24hr
cm
rain mn
cm
humidity
%
barometer
mb
20260905191507 36 5 9.7 29.0 0.00 0.00 0.00 49 1012.4
20260905190004 37 123 1.6 8.0 0.00 0.00 0.00 47 1011.7
20260905184509 37 210 1.6 6.4 0.00 0.00 0.00 46 1011.6
20260905183015 37 152 0.0 6.4 0.00 0.00 0.00 48 1011.7
20260905181503 37 84 1.6 6.4 0.00 0.00 0.00 51 1012.2
20260905180003 34 185 0.0 3.2 0.00 0.00 0.00 63 1012.6
20260905174504 36 248 1.6 6.4 0.00 0.00 0.00 51 1012.9
20260905173013 36 213 0.0 8.0 0.00 0.00 0.00 50 1012.8
20260905171515 37 90 1.6 6.4 0.00 0.00 0.00 50 1012.9
20260905170023 35 316 0.0 8.0 0.00 0.00 0.00 53 1013.1
20260905164505 37 28 0.0 4.8 0.00 0.00 0.00 52 1013.5
20260905163007 36 294 1.6 6.4 0.00 0.00 0.00 55 1013.8
20260905161511 35 301 0.0 4.8 0.00 0.00 0.00 57 1014.0
20260905160018 33 144 1.6 8.0 0.00 0.00 0.00 58 1014.0
20260905154527 33 91 0.0 6.4 0.00 0.00 0.00 63 1014.1
20260905153006 32 190 0.0 4.8 0.00 0.00 0.00 65 1014.5
20260905151510 32 111 0.0 4.8 0.00 0.00 0.00 67 1014.4
20260905150015 32 239 0.0 8.0 0.00 0.00 0.00 69 1014.5
20260905144518 30 352 0.0 0.0 0.00 0.00 0.00 74 1014.5
20260905143033 29 308 0.0 0.0 0.00 0.00 0.00 77 1014.5
20260905141521 27 146 0.0 0.0 0.00 0.00 0.00 80 1014.7
20260905140012 27 30 0.0 1.6 0.00 0.00 0.00 83 1014.8
20260905134519 26 10 0.0 0.0 0.00 0.00 0.00 86 1014.9
20260905133023 26 226 0.0 0.0 0.00 0.00 0.00 88 1014.8
20260905131529 25 5 0.0 0.0 0.00 0.00 0.00 90 1014.9
20260905130008 25 267 0.0 0.0 0.00 0.00 0.00 90 1014.7
20260905124519 25 230 0.0 0.0 0.00 0.00 0.00 90 1014.8
20260905123024 24 184 0.0 0.0 0.00 0.00 0.00 91 1014.7
20260905121526 24 164 0.0 0.0 0.00 0.00 0.00 92 1014.7
20260905120030 23 213 0.0 0.0 0.00 0.00 0.00 93 1014.6
20260905114510 23 205 0.0 0.0 0.00 0.00 0.00 92 1014.5
20260905113014 23 184 0.0 0.0 0.00 0.00 0.00 92 1014.3
20260905111523 23 159 0.0 0.0 0.00 0.00 0.00 91 1014.1
20260905110006 23 156 0.0 0.0 0.00 0.00 0.00 91 1013.9
20260905104510 23 197 0.0 0.0 0.00 0.00 0.00 91 1013.8
20260905103016 23 197 0.0 0.0 0.00 0.00 0.00 90 1013.6
20260905101502 23 178 0.0 0.0 0.00 0.00 0.00 92 1013.6
20260905100004 23 182 0.0 0.0 0.00 0.00 0.00 92 1013.6
20260905094505 23 182 0.0 0.0 0.00 0.00 0.00 91 1013.7
20260905093008 23 234 0.0 0.0 0.00 0.00 0.00 91 1013.6
20260905091515 23 193 0.0 0.0 0.00 0.00 0.00 92 1013.6
20260905090016 23 196 0.0 0.0 0.00 0.00 0.00 91 1013.7
20260905084505 23 134 0.0 4.8 0.00 0.00 0.00 91 1013.7
20260905083012 23 224 0.0 3.2 0.00 0.00 0.00 91 1013.7
20260905081512 23 186 0.0 1.6 0.00 0.00 0.00 91 1013.9
20260905080018 23 250 0.0 3.2 0.00 0.00 0.00 90 1014.1
20260905074528 23 238 0.0 3.2 0.00 0.00 0.00 91 1014.1
20260905073007 23 178 0.0 1.6 0.00 0.00 0.00 89 1014.1
20260905071517 23 178 0.0 3.2 0.00 0.00 0.00 89 1014.0
20260905070018 23 182 0.0 0.0 0.00 0.00 0.00 87 1014.1
20260905064525 24 182 0.0 1.6 0.00 0.00 0.00 87 1014.3
20260905063034 24 225 0.0 3.2 0.00 0.00 0.00 86 1014.3